Location: Newark
(9.4667°S, 159.8167°E)
Time: 13:13:09
(UTC+00:00)

Courier 1B Rocket - Pass Details

Date: 22 November 2019
Orbit: 920 x 1202 km, 28.2° (Epoch: 05 December)

Event Time Altitude Azimuth Distance (km) Brightness Sun altitude
Rises 12:09:40 0° 298° (WNW) 4,088 - -57.2°
Reaches altitude 10° 12:12:32 10° 297° (WNW) 3,118 - -57.5°
Maximum altitude 12:20:22 85° 208° (SSW) 1,171 - -58.3°
Drops below altitude 10° 12:27:49 10° 120° (ESE) 2,983 - -58.9°
Sets 12:30:31 0° 119° (ESE) 3,903 - -59.1°
